Regional Weather Roundup
Issued by NWS

Home | Current Version | Previous Version | Graphics & Text | Print | Product List | Glossary On
Versions: 1 2 3 4 5 6 7 8 9 10 11 12 13 14 15 16 17 18 19 20 21 22 23 24 25 26 27 28 29 30 31 32 33 34 35 36 37 38 39 40 41 42 43 44 45 46 47 48 49 50
000
ASUS43 KIND 201800
RWRIN

WEATHER ROUNDUP FOR INDIANA
NATIONAL WEATHER SERVICE INDIANAPOLIS IN
200 PM EDT WED SEP 20 2017

NOTE: "FAIR" INDICATES FEW OR NO CLOUDS BELOW 12,000 FEET WITH NO
SIGNIFICANT WEATHER AND/OR OBSTRUCTIONS TO VISIBILITY.

* - STATION DOES NOT REPORT WEATHER SUCH AS PRECIPITATION OR FOG.

+ - STATION NOT QUALITY CONTROLLED BY THE NATIONAL WEATHER SERVICE.
    USE DATA WITH CAUTION...ESPECIALLY DEWPOINT AND RELATIVE
    HUMIDITY OBSERVATIONS.

INZ001>003-010>013-019-020-201900-
NORTHWEST INDIANA

CITY           SKY/WX    TMP DP  RH WIND       PRES   REMARKS
GARY /AIRPORT/ MOSUNNY   88  66  48 S5        29.93S
MICHIGAN CITY+ MOSUNNY   84  70  61 S6        29.96R
MONTICELLO +   MOSUNNY   85  70  60 S8        29.95S
6HR MIN TEMP:  64; 6HR MAX TEMP:  85;

RENSSELAER +   MOSUNNY   88  61  40 S12       29.95S

$$

LMZ046-743>745-201900-
SOUTHERN LAKE MICHIGAN

STATION/POSITION TIME  TEMP    WIND        PRES    WAVE
                       AIR SEA DIR/SP/G            HT
                 (UTC) (F)     (DEG/KT/KT) (MB)    (FT)
BURNS HARBOR     1740   85     190/  7/ 12 1013.9S
MICHIGAN CITY    1730   81     170/ 12/ 16   N/A
5NW MICH CITY    1750   76 70  160/  6/  8   N/A     1

$$

INZ004-005-014>016-021>024-201900-
NORTH CENTRAL INDIANA

CITY           SKY/WX    TMP DP  RH WIND       PRES   REMARKS
ELKHART        SUNNY     82  68  61 SE9       29.98S
GOSHEN         SUNNY     81  68  64 S8        29.98S
6HR MIN TEMP:  63; 6HR MAX TEMP:  82;

PERU/GRISSOM   LGT RAIN  86  70  58 S7        29.96F
SOUTH BEND     SUNNY     82  71  69 S8        29.98R
6HR MIN TEMP:  64; 6HR MAX TEMP:  82;


$$

INZ006>009-017-018-025>027-201900-
NORTHEAST INDIANA

CITY           SKY/WX    TMP DP  RH WIND       PRES   REMARKS
FORT WAYNE     PTSUNNY   82  69  64 S6        30.00F
6HR MIN TEMP:  61; 6HR MAX TEMP:  83;

KENDALLVILLE + SUNNY     78  71  79 S6        30.01S

$$

INZ028-029-035-036-043>045-051>053-201900-
WEST CENTRAL INDIANA

CITY           SKY/WX    TMP DP  RH WIND       PRES   REMARKS
LAFAYETTE      MOSUNNY   86  70  58 SW9       29.94F
6HR MIN TEMP:  63; 6HR MAX TEMP:  87;

TERRE HAUTE    MOSUNNY   89  69  51 SW10G21   29.96F
6HR MIN TEMP:  65; 6HR MAX TEMP:  90;


$$

INZ030>032-037>040-046>048-054>057-064-065-201900-
CENTRAL INDIANA

CITY           SKY/WX    TMP DP  RH WIND       PRES   REMARKS
COLUMBUS       MOSUNNY   84  68  58 S12       30.00F
GREENWOOD *+   MOSUNNY   89  72  58 SW8       30.00F HX  95
6HR MIN TEMP:  68; 6HR MAX TEMP:  89;

INDIANAPOLIS   MOSUNNY   86  70  58 S12G17    29.98F
6HR MIN TEMP:  66; 6HR MAX TEMP:  87;

-EAGLE CREEK   MOSUNNY   85  69  58 S7        29.98F
6HR MIN TEMP:  66; 6HR MAX TEMP:  87;

KOKOMO +       PTSUNNY   83  72  69 S8        29.99F
6HR MIN TEMP:  62; 6HR MAX TEMP:  84;

MT COMFORT *+    N/A    N/A N/A N/A MISG        N/A
SHELBYVILLE    PTSUNNY   85  68  56 S9        29.99F
6HR MIN TEMP:  68; 6HR MAX TEMP:  86;


$$

INZ033-034-041-042-049-050-058-059-201900-
EAST CENTRAL INDIANA

CITY           SKY/WX    TMP DP  RH WIND       PRES   REMARKS
MUNCIE         MOSUNNY   85  67  54 VRB5      30.00F
6HR MIN TEMP:  69; 6HR MAX TEMP:  86;

RICHMOND +     MOSUNNY   81  66  61 SW7       30.04F

$$

INZ060-061-067>069-081>083-085>088-201900-
SOUTHWEST INDIANA

CITY           SKY/WX    TMP DP  RH WIND       PRES   REMARKS
EVANSVILLE     PTSUNNY   85  71  63 SW9       29.98F
6HR MIN TEMP:  67; 6HR MAX TEMP:  88;


$$

INZ062-063-066-070>080-084-089>092-201900-
SOUTH CENTRAL AND SOUTHEAST INDIANA

CITY           SKY/WX    TMP DP  RH WIND       PRES   REMARKS
BLOOMINGTON    MOSUNNY   87  67  51 SW9       29.99F
6HR MIN TEMP:  66; 6HR MAX TEMP:  88;

MADISON *+     MOSUNNY   82  68  61 SE5       30.04F
SEYMOUR +      MOSUNNY   86  70  58 SE7       30.00F

$$





USA.gov is the U.S. government's official web portal to all federal, state and local government web resources and services.